User: anonymous   Login
Location: Unspecified
(0.0000°N, 0.0000°E)
Time: 17:12:08
(UTC+00:00)
Language:

NAVSTAR 65 (USA 213) - Orbit

View from above orbital plane
View from above orbital plane
View from above satellite
View from above satellite

Ground track
Ground track

The orbit data is extracted from the following two-line orbital elements,

1 36585U 10022A   15245.13347014 -.00000073  00000-0  00000+0 0  9992
2 36585  56.0657   6.5266 0044840  41.0519 278.5669  2.00568507 38550
Epoch (UTC): 02 September 2015 03:12:11
Eccentricity: 0.0044840
inclination: 56.0657°
perigee height: 20062 km
apogee height: 20300 km
right ascension of ascending node: 6.5266°
argument of perigee: 41.0519°
revolutions per day: 2.00568507
mean anomaly at epoch: 278.5669°
orbit number at epoch: 3855

The dashed part of the orbit path shows where the satellite is in the earth's shadow,  

DLR